loading
|

TITAN 3C TRANSTAGE DEB, 1646

Orbit data source: Space-Track

TITAN 3C TRANSTAGE DEB, 1646 is space debris in LEO originally from a launch on Fri, 15 Oct 1965 UTC launched from the Air Force Eastern Test Range (AFETR). Debris objects in space refer to the collection of defunct objects orbiting the Earth. Examples of debris include non-operational satellites, rocket bodies, and fragments generated from explosions, collisions, or faulty payload assembly.

Loading next visibility...
Next conjunction unknown
Loading greatness...
TITAN 3C TRANSTAGE DEB details
Identifier
1646, 1965-082H
Orbit
LEO
Last TLE update11 hours ago
Origin
Flag of USUSAF SSD (US)
ManufacturerUnknown
MissionSpacecraft
Bus & MotorUnknown bus, Unknown motor
MassUnknown
Launch date (UTC)
1965-10-15 (59 years ago)
Launch vehicleUnknown
Launch site
Air Force Eastern Test Range (AFETR)
Object type
Payload
Rocket body
Debris
Shape & HBRUnknown
Radar Cross Section1.500 m², Large (>1 m²)

Expand to show TLE details & history

TLE from 11 hours ago
0 TITAN 3C TRANSTAGE DEB
1 01646U 65082H   24285.56168130  .00007269  00000-0  10499-2 0  9998
2 01646  32.3091  97.7947 0003000  26.6305 333.4501 14.75214348129410
Epoch: 2024-10-11T13:28Z
Definitive object data (Epoch: 2024-10-11T13:28:49.264Z)
Latitude0.00001°
Longitude-125.04066°
Altitude641.247 km
Speed7.541 km/s
True Right ascension06h 31m 10s
True Declination0° 00' 00"
Sunlit
Object was in daylight at TLE epoch
Predictive object data (real-time)
Latitude-32.43417°
Longitude140.23352°
Altitude653.457 km
Speed7.531 km/s
Apparent Right ascension03h 05m 15s
Apparent Declination-47° 57' 29"
Sunlit
Object is in full shadow
Predictive observer data (real-time)
Local Sidereal Time18:49:57
Azimuth120.706° SE
Elevation-49.681°
Doppler factor1
Orbital elements
Apogee650.168 km
Perigee645.953 km
Semi-major axis7,026.198 km
Eccentricity0.0003
Inclination32.3091°
RAAN97.7947°
Arg. of periapsis26.6305°
True anomaly333.43473°
Mean anomaly333.4501°
Eccentric anomaly333.44241°
Mean motion3.68521 °/min
BSTAR0.0010499
Period97.69 mins
No data available

TITAN 3C TRANSTAGE DEB Visibility forecast

Observer location: 39.9160978°, -105.1181434

Span
Click to sort rows by Start time (UTC) header in descending order
Start Az.
Max El. time (UTC)
Max El. Az.
Max El.
End time (UTC)
End Az.
7 mins2024-10-12 15:43:06.329Z213.6° SW2024-10-12 15:46:06.329Z171.964° S20.907°2024-10-12 15:50:06.329Z113.455° SE
6 mins2024-10-12 17:27:06.329Z224.948° SW2024-10-12 17:29:06.329Z185.121° SSW27.897°2024-10-12 17:33:06.329Z118.775° SE
5 mins2024-10-12 19:10:06.329Z230.919° WSW2024-10-12 19:12:06.329Z195.665° SSW22.625°2024-10-12 19:15:06.329Z147.148° SSE